Wind_Speed
17 5 4 10 14 13 15 17 19 20 20 20 21 24 20 11 9 18 9 12 22 20 11 12 13 11 10 8 8 8 7 6 7 6 6 7 7 7 7 8 8 7 8 8 8 8 9 11 13 14 16 18 19 20 20 18 16 15 15 14 14 15 15 17 19 19 19 20 21 23 24 25 27 28 29 30 30 30 30 31 32 33 33 34 35 35 35
18 11 6 9 11 9 11 15 19 20 22 25 26 27 24 18 20 22 9 11 24 17 11 16 16 13 11 6 6 8 8 8 9 8 8 9 9 9 8 8 8 8 8 8 8 8 8 9 12 13 16 17 18 19 19 18 17 16 15 15 15 15 16 17 17 17 18 19 20 22 23 24 25 26 27 28 28 28 29 29 30 31 32 32 33 34 35
14 14 10 9 10 10 10 11 14 18 21 24 26 25 21 17 23 24 14 17 24 13 9 11 11 11 11 8 9 10 11 11 10 10 11 11 10 10 9 9 9 9 9 8 8 8 8 10 13 15 16 17 17 17 17 18 17 16 15 15 15 16 17 17 17 16 17 17 19 21 23 24 25 25 26 26 27 27 28 28 29 29 30 31 32 33 34
12 11 10 10 8 6 7 9 15 19 19 20 21 19 16 17 21 19 12 17 22 11 6 8 10 11 13 12 11 11 13 13 10 11 12 11 10 9 8 9 9 10 10 9 9 9 10 12 14 17 18 17 17 18 18 17 16 15 15 15 15 16 16 16 16 17 17 17 18 20 22 23 24 25 25 25 26 27 27 28 28 28 29 30 31 33 33
11 9 9 9 6 3 7 14 18 20 20 20 17 14 16 19 18 13 12 19 20 6 6 11 13 13 16 16 13 13 15 14 11 12 13 12 11 10 10 11 11 11 11 9 10 11 12 15 18 20 20 19 18 18 16 15 15 15 15 15 15 15 15 15 16 16 16 17 18 20 21 22 23 24 24 25 26 27 28 28 28 28 29 30 31 32 33
10 7 7 7 5 8 11 11 13 19 22 21 17 16 18 19 17 16 18 20 17 7 8 14 15 15 17 17 14 13 13 12 13 15 15 13 11 11 12 12 11 11 10 9 10 14 17 19 21 21 20 19 17 15 13 13 14 15 15 15 14 14 14 14 14 14 15 16 18 19 20 21 22 23 24 26 26 27 28 28 28 28 28 29 30 31 33
5 3 6 5 8 11 11 5 6 15 20 19 19 22 23 21 21 23 24 25 21 14 14 16 16 16 16 14 13 11 10 13 16 16 13 11 11 14 14 12 12 12 11 9 9 14 19 21 19 19 19 18 15 13 13 14 15 15 15 15 14 14 14 14 13 13 14 15 17 18 19 20 21 23 24 25 26 27 28 29 30 30 29 28 28 30 33
3 2 6 9 6 4 6 5 3 8 11 14 17 21 22 21 21 22 25 28 25 20 19 19 18 16 14 13 11 9 11 15 16 14 12 11 14 16 13 11 13 13 13 14 15 17 20 20 19 19 20 18 16 15 15 15 15 15 15 15 15 14 14 14 13 13 13 15 16 17 18 19 20 22 23 24 26 27 27 28 28 28 28 27 27 29 32
6 6 9 8 5 7 9 9 6 6 7 11 13 13 17 19 21 21 23 26 25 21 21 21 19 14 11 13 13 11 14 16 14 13 15 15 16 14 12 14 17 18 20 22 22 21 19 19 21 22 20 18 16 16 15 15 15 15 16 16 16 15 15 15 14 14 14 15 17 17 18 19 20 22 23 24 25 25 25 25 25 25 26 25 26 29 32
7 8 9 6 5 10 14 12 7 7 8 11 13 10 14 14 18 21 23 26 25 22 21 20 16 9 9 14 15 12 13 15 13 14 17 18 15 12 12 14 14 17 21 22 21 21 19 20 23 23 20 18 17 16 16 16 16 16 17 18 17 16 17 17 16 16 15 16 17 18 18 19 20 21 22 24 24 24 25 25 26 26 25 23 25 29 31
7 8 9 8 8 10 12 9 8 11 11 11 11 4 11 10 17 21 24 26 23 19 20 17 10 6 9 14 14 10 9 11 12 14 17 17 15 13 14 14 15 17 20 19 18 18 18 20 23 22 20 19 18 16 16 16 16 16 18 20 19 19 18 17 17 18 17 17 18 19 20 20 21 22 23 24 24 24 24 24 23 22 22 23 25 28 30
10 10 9 7 6 7 7 7 8 11 12 12 11 7 10 8 14 16 16 19 19 17 15 11 8 9 13 14 10 4 5 7 9 12 14 14 14 12 12 15 18 19 18 16 14 16 19 22 23 22 21 19 18 17 16 16 17 19 22 22 20 19 18 17 18 18 18 18 19 19 20 21 22 23 23 23 23 22 22 21 19 19 21 24 26 28 28
13 13 10 6 5 6 7 7 6 9 11 10 11 12 7 5 8 7 9 13 16 14 11 8 8 12 14 13 8 1 5 3 6 8 9 10 10 10 11 15 17 16 17 19 19 20 23 23 22 23 22 20 19 17 15 16 20 24 24 21 19 19 19 18 18 18 19 20 20 20 21 21 22 23 23 22 22 21 20 20 19 19 21 24 26 26 26
11 11 10 8 6 5 8 8 7 10 10 9 11 8 3 5 7 6 8 12 11 10 10 9 10 12 11 12 10 4 2 5 6 6 6 5 5 6 9 14 16 16 16 17 17 19 20 21 22 24 23 20 18 16 15 19 25 25 21 19 19 19 20 20 19 19 19 20 21 20 20 20 20 21 21 21 22 21 21 20 19 20 21 23 25 24 23
9 9 10 8 8 8 12 11 6 9 12 8 5 3 1 3 7 7 7 8 8 8 9 9 11 11 8 8 8 7 7 7 6 6 6 6 6 6 7 10 15 16 12 12 15 18 19 20 21 23 23 20 17 15 18 25 25 21 19 20 20 20 21 21 21 20 20 21 22 21 21 21 20 20 21 21 21 21 21 20 19 19 20 21 23 22 20
8 9 9 8 6 7 15 15 10 14 12 4 2 5 5 1 4 6 6 7 7 7 8 8 9 9 8 7 6 6 6 7 6 5 5 5 7 8 9 11 17 17 12 11 15 17 17 18 20 22 23 20 16 17 23 26 22 18 19 20 20 21 22 22 21 20 20 21 22 22 22 21 21 21 21 21 21 22 22 21 19 19 19 20 21 20 18
10 9 8 6 3 5 13 16 16 16 14 8 3 4 4 2 2 4 4 6 6 6 7 7 6 6 7 7 6 6 6 6 6 4 4 5 5 5 5 9 15 17 14 12 13 13 15 18 20 22 24 21 18 21 26 25 21 19 20 20 21 23 23 23 22 21 20 21 23 23 23 23 21 20 20 21 21 21 22 21 20 18 18 19 21 19 17
9 8 4 4 4 8 13 17 14 9 11 12 7 3 2 4 5 5 4 5 5 6 6 6 4 6 7 6 5 5 5 6 5 4 3 4 2 2 3 7 13 15 12 10 10 10 12 17 20 22 25 25 24 25 26 23 21 20 20 21 23 23 23 22 22 21 20 21 22 23 24 24 23 22 21 20 20 21 21 21 20 19 18 19 20 19 18
8 8 7 9 11 11 12 15 13 6 6 9 9 8 7 6 6 6 5 4 5 6 7 7 6 6 5 5 4 4 4 5 5 5 5 4 3 5 6 8 12 11 8 7 7 8 10 16 20 22 25 28 29 27 23 20 20 20 20 22 23 22 22 22 22 21 21 20 21 22 23 24 24 23 23 22 21 21 21 21 20 19 19 19 19 18 17
10 9 11 14 14 10 8 11 11 8 8 8 9 10 10 7 6 6 5 4 5 6 6 7 6 5 5 6 5 4 4 6 5 4 5 6 6 7 8 7 9 9 7 7 8 8 11 16 20 23 25 27 29 27 23 20 19 20 21 23 23 23 23 23 22 22 22 21 20 21 22 23 23 23 23 23 23 23 23 23 21 20 19 20 20 21 20
11 9 8 8 7 8 11 13 11 10 10 10 10 10 8 8 8 6 5 4 5 6 7 6 6 5 5 5 6 6 6 6 5 5 6 6 7 7 8 9 12 11 10 9 10 11 14 17 19 21 24 25 26 25 24 22 21 21 23 23 23 23 23 23 23 23 22 22 21 21 20 22 23 24 25 25 25 24 25 26 26 24 22 21 23 24 24
10 10 10 9 8 10 14 15 17 16 12 9 9 9 7 8 10 9 7 7 6 6 7 6 7 6 6 6 7 7 6 6 7 7 7 6 6 7 8 10 12 13 14 13 12 14 16 16 15 18 21 22 22 23 24 24 24 24 24 22 22 22 22 23 23 23 22 22 22 21 21 20 21 22 24 26 27 27 26 27 28 28 26 25 25 26 27
8 11 15 15 11 10 12 13 15 16 11 9 9 10 9 10 10 9 8 8 8 7 7 7 7 8 8 8 8 8 7 8 8 7 7 7 7 8 9 9 8 11 14 13 12 13 16 15 15 17 19 19 19 20 22 24 26 26 25 22 21 21 22 23 24 24 23 22 22 21 21 21 20 19 20 23 27 29 29 27 28 29 30 29 29 29 30
10 10 14 14 11 12 15 15 12 9 8 10 11 12 12 12 10 9 9 10 10 9 8 7 8 9 9 9 9 9 9 8 8 8 8 8 9 9 10 9 8 9 10 11 13 15 17 16 16 17 18 18 18 19 21 23 26 27 27 24 22 21 22 23 24 24 24 23 22 21 20 20 20 19 17 17 19 24 28 29 29 30 31 31 31 31 31
10 11 11 9 8 12 15 12 7 5 7 10 12 13 14 14 14 13 11 10 11 11 10 9 9 10 10 10 9 9 9 9 9 9 8 7 8 9 8 8 10 11 12 14 15 16 16 16 16 17 17 18 18 19 20 23 25 27 28 27 25 23 23 23 23 24 24 23 22 22 21 20 20 19 18 16 14 15 20 25 28 30 31 32 33 32 30
10 12 12 9 6 8 10 9 5 5 8 10 10 11 13 15 16 15 12 12 12 12 11 11 10 9 10 11 9 9 9 9 8 7 6 6 6 7 9 12 16 17 16 15 15 14 15 16 16 16 17 18 18 18 20 22 24 27 29 29 28 26 24 24 24 24 25 25 24 23 22 21 21 20 20 19 16 14 14 16 20 24 28 30 32 32 31
9 10 10 9 7 7 9 10 11 10 9 10 11 12 12 12 12 11 10 10 10 9 10 11 9 7 8 9 8 8 9 8 6 5 6 7 8 11 15 18 18 17 16 15 14 14 15 15 16 16 17 16 16 16 18 20 23 26 27 28 27 26 24 24 25 25 25 26 25 24 23 23 23 22 20 19 18 17 16 15 15 18 22 24 27 30 31
7 6 6 7 8 8 8 10 10 7 6 9 11 11 9 9 8 8 8 9 9 8 8 9 8 7 7 7 7 7 7 7 7 6 6 8 12 16 18 17 15 15 15 14 14 14 14 14 15 16 16 15 13 15 17 19 22 25 26 26 26 24 24 24 25 25 25 25 25 25 25 24 23 22 21 20 20 19 19 18 18 18 19 20 22 25 29
5 5 6 7 7 7 8 10 9 5 5 8 9 8 7 8 8 8 9 10 8 8 8 8 7 8 8 6 6 7 7 7 8 8 8 11 14 15 15 13 12 11 10 10 11 12 12 12 13 14 15 14 13 14 16 18 21 24 25 26 25 24 24 24 25 25 24 25 25 26 25 24 23 22 21 21 21 20 19 19 20 19 18 18 18 20 24
7 7 8 9 9 8 8 9 8 6 7 7 7 6 8 10 10 9 9 9 8 7 8 8 7 7 7 7 7 8 8 8 8 8 8 11 12 12 11 10 7 5 5 8 10 11 10 10 12 15 15 12 11 12 14 16 20 22 24 25 26 25 25 25 25 25 25 24 24 24 24 23 23 22 21 21 21 21 20 20 20 19 18 18 18 19 21
13 12 9 7 7 6 6 7 7 6 6 5 5 5 4 6 9 9 8 6 7 7 7 6 6 7 7 7 6 7 7 6 6 7 8 9 9 8 9 9 7 4 4 7 8 8 8 9 12 13 12 10 9 10 11 14 17 20 22 23 24 25 25 25 25 25 25 24 22 22 23 23 22 22 21 20 20 20 21 20 19 20 19 18 20 22 21
13 13 8 6 6 6 5 6 6 7 7 6 4 4 3 2 4 3 2 1 3 4 3 3 4 5 5 4 4 5 5 4 5 5 6 6 5 4 5 7 7 5 5 6 7 7 7 8 11 11 9 9 8 8 9 12 15 18 20 21 22 23 24 25 25 25 25 24 23 23 23 23 22 21 21 21 21 21 20 20 19 20 20 20 22 24 24
9 8 7 8 9 8 8 8 8 9 9 8 6 5 6 5 4 3 3 2 2 2 3 2 2 4 4 3 4 4 4 4 4 3 2 2 2 2 2 2 2 3 3 5 6 6 7 9 10 9 8 8 8 8 8 10 13 16 18 20 21 22 23 24 25 25 24 23 24 24 23 22 21 21 22 23 23 21 20 20 20 20 21 23 25 27 27
6 5 5 7 7 7 8 9 8 8 8 8 7 7 7 7 7 6 5 5 5 5 4 4 4 4 3 1 3 4 4 4 4 4 3 3 4 4 4 4 3 1 1 2 4 6 7 8 9 9 9 9 8 8 8 9 11 14 17 18 20 21 21 22 24 24 23 23 24 24 22 22 21 22 23 23 22 21 21 22 22 22 22 23 26 27 28
5 4 5 6 6 7 7 7 7 8 8 8 8 8 8 8 8 8 9 8 7 6 5 5 5 4 4 4 5 5 5 5 4 4 4 4 5 6 7 7 6 5 4 4 6 8 9 10 11 12 12 12 10 9 9 9 10 12 14 17 19 20 21 21 22 23 24 24 23 22 22 22 23 23 23 22 21 21 22 22 23 22 22 22 24 25 27
6 5 5 4 5 7 7 6 7 8 7 7 7 8 8 9 10 10 9 9 8 8 8 7 5 5 5 5 5 5 5 4 4 4 4 6 6 7 8 8 7 5 4 6 10 11 10 11 12 13 14 13 12 10 9 9 9 10 12 15 17 19 20 20 21 22 23 23 22 21 22 23 23 23 23 22 22 21 21 22 22 22 23 23 22 22 24
7 7 6 5 5 6 6 6 6 7 7 7 8 9 10 10 10 9 9 8 9 11 10 8 6 5 5 5 6 6 7 7 6 6 7 8 8 7 7 7 6 5 4 6 11 12 12 11 10 9 10 11 11 10 9 8 7 7 8 11 14 16 18 18 19 20 21 21 22 21 21 21 21 21 22 23 22 22 22 22 22 22 23 23 22 22 23
7 7 6 6 6 6 6 7 6 7 8 9 9 10 10 10 10 9 9 9 11 13 12 10 8 7 7 7 7 7 8 10 10 10 10 10 8 6 6 7 6 5 4 7 11 12 14 14 13 11 12 14 14 13 12 10 8 5 4 6 11 14 16 17 18 19 20 20 21 20 20 20 20 20 21 22 22 22 22 22 22 22 22 22 22 22 23
7 7 7 7 7 6 7 7 7 7 9 9 8 8 10 11 11 10 8 9 12 14 13 10 9 8 8 8 7 6 8 11 12 11 11 11 7 5 10 11 12 10 9 11 13 14 14 14 14 15 16 17 16 17 17 14 12 9 7 4 6 11 14 16 17 18 19 19 19 19 19 20 19 19 20 21 21 22 23 23 23 23 22 22 23 23 24
6 6 7 7 6 6 7 7 6 7 9 10 9 9 9 10 9 8 7 9 13 14 13 11 8 7 8 8 7 6 9 12 12 12 12 11 7 4 9 11 16 17 15 15 17 16 15 14 15 17 19 18 17 19 20 18 15 13 11 8 6 7 10 14 16 17 17 18 18 18 19 19 19 19 20 20 20 21 22 22 23 23 23 23 23 24 24
6 6 6 6 6 5 6 6 5 6 9 10 11 11 11 10 9 7 7 9 11 13 13 11 9 8 8 9 8 8 10 12 13 14 12 9 7 4 4 8 16 21 19 17 18 18 17 15 16 19 20 18 17 20 22 19 16 15 13 11 9 8 9 11 13 15 16 17 17 18 18 18 19 19 19 19 20 20 20 21 22 23 23 23 24 24 24
6 7 7 6 6 6 6 6 6 6 8 10 11 12 13 12 10 9 8 9 10 10 12 13 12 11 10 10 9 9 11 12 14 15 12 11 11 8 4 6 16 22 21 18 19 20 18 16 17 19 21 19 18 21 22 18 15 15 14 13 11 10 10 10 12 14 16 17 17 18 18 18 18 18 18 19 19 19 20 20 21 21 23 23 24 25 25
7 7 7 6 6 6 6 7 7 7 7 9 11 13 13 12 11 11 11 11 10 10 11 12 12 12 12 11 9 7 8 10 12 12 9 11 16 17 12 11 16 21 21 19 19 20 18 17 17 19 20 19 19 21 20 17 14 14 13 12 12 12 12 12 13 14 15 16 17 17 17 18 18 17 17 17 18 19 20 20 20 21 22 23 24 25 26
8 7 6 6 7 7 6 6 8 8 7 8 11 13 13 13 13 13 13 12 11 11 11 11 11 11 12 11 8 6 6 8 9 9 6 5 9 15 19 19 18 18 20 20 19 17 17 17 19 21 21 20 19 18 17 15 14 14 13 12 13 13 13 13 14 14 15 16 16 16 17 17 17 17 17 17 17 18 19 20 20 21 22 23 23 24 25
7 7 8 8 9 7 6 6 8 8 8 7 9 12 14 13 13 14 14 13 12 12 12 11 11 11 11 10 9 7 7 8 8 8 7 4 3 9 18 21 18 17 19 19 16 15 16 19 21 23 23 22 19 16 15 14 14 14 14 13 13 13 13 14 14 15 15 15 16 16 17 17 17 17 17 18 18 18 18 19 20 21 22 22 23 23 24
6 7 9 10 9 9 9 9 9 9 9 7 6 9 14 15 13 12 14 14 13 12 12 12 12 12 13 12 11 9 10 10 9 11 12 10 6 9 15 18 16 16 18 17 14 14 16 19 22 23 24 22 19 16 15 15 15 14 14 14 14 13 14 14 15 15 15 15 15 15 16 16 17 17 17 17 18 18 18 19 20 20 21 22 22 23 24
7 8 10 11 12 11 11 11 10 9 10 9 6 6 11 15 14 12 13 14 13 12 12 12 13 13 14 15 14 11 11 9 7 9 14 16 14 12 13 14 15 17 17 15 13 14 16 19 21 23 22 21 19 17 16 16 16 15 14 14 14 14 14 15 16 17 17 16 16 16 16 16 16 16 16 16 17 17 17 17 18 18 20 21 22 22 23
8 9 10 12 13 13 12 11 9 8 8 8 7 7 10 13 13 11 11 13 13 12 11 12 13 14 15 16 16 15 14 10 5 5 12 18 16 13 13 14 16 17 17 14 13 14 17 19 21 21 21 20 19 18 17 16 16 15 14 14 14 14 15 16 16 18 18 19 18 18 17 16 15 16 16 16 16 16 16 16 16 16 17 18 19 21 22
10 9 9 10 11 10 9 8 7 6 8 9 8 9 12 12 10 9 11 12 12 11 11 12 12 14 16 16 16 16 17 14 9 8 13 17 16 14 14 15 16 17 17 16 15 15 17 19 20 20 19 19 19 19 18 17 16 15 15 15 14 14 15 16 17 18 18 18 18 18 17 16 16 15 15 16 16 16 16 16 16 16 16 17 18 19 20
8 7 6 6 6 7 7 6 5 6 8 9 9 11 12 11 7 7 11 13 12 11 11 12 12 13 15 17 16 15 16 16 14 13 14 15 15 15 16 16 17 17 17 17 16 17 18 19 19 19 18 19 18 18 18 18 17 15 15 15 16 16 16 16 17 17 17 17 17 17 17 17 17 17 16 15 15 15 15 15 16 16 16 17 18 18 19
5 5 5 6 7 8 9 9 9 9 10 11 10 10 11 9 7 7 10 12 11 9 9 10 11 12 14 15 15 15 15 16 15 15 15 15 15 16 16 16 16 17 17 17 17 18 19 19 19 18 18 18 18 17 17 17 17 16 16 16 16 16 17 17 17 17 18 18 18 17 16 16 18 19 18 18 17 16 16 15 15 15 15 16 16 17 17
7 7 7 8 8 8 9 10 11 11 12 12 11 10 11 10 8 7 10 12 12 10 9 8 7 10 13 15 14 14 14 15 14 14 15 15 15 16 16 15 16 16 16 16 17 18 19 18 17 17 17 17 17 17 16 16 16 16 17 16 16 15 16 16 17 18 18 18 18 17 18 18 18 18 18 19 19 19 18 17 17 16 16 16 17 16 17
Wind_Direction
239 211 152 179 174 183 196 192 192 193 191 193 202 220 221 173 202 244 203 171 231 241 211 214 224 219 221 210 205 219 214 217 234 235 233 229 227 234 239 240 240 238 245 250 247 245 242 243 250 254 256 259 259 257 257 256 253 248 247 247 250 255 256 255 256 257 256 254 251 248 242 236 233 230 228 226 225 226 228 230 231 233 235 238 237 236 235
244 232 195 194 191 186 193 196 194 188 191 199 207 219 221 207 226 242 218 216 245 241 209 219 225 229 234 211 204 222 215 222 234 235 235 234 229 229 231 240 247 247 248 246 242 247 246 241 244 249 252 252 250 248 248 248 246 245 245 248 254 257 259 261 263 264 263 260 257 253 248 242 238 234 231 228 226 226 228 230 232 232 232 234 234 234 234
250 237 214 204 199 197 201 199 198 197 198 205 212 219 218 213 233 242 241 256 261 244 195 217 228 235 244 232 220 230 232 231 230 235 240 237 233 234 236 244 255 260 257 248 242 246 244 239 239 241 244 244 241 241 242 242 241 240 242 246 251 255 259 263 267 268 267 264 258 253 249 244 240 236 232 228 225 225 226 228 230 230 229 230 231 231 231
247 229 203 201 200 207 223 215 208 205 204 210 217 219 212 209 226 237 238 251 257 243 179 215 229 229 238 234 220 227 239 234 220 226 236 234 233 238 243 249 255 259 255 245 236 236 238 237 236 237 237 233 232 234 236 237 236 234 237 242 247 253 258 263 266 267 268 265 259 253 248 243 239 235 230 226 224 223 223 224 226 227 227 227 227 228 229
243 225 182 175 166 180 237 232 217 208 210 216 218 220 219 214 217 221 222 236 247 232 167 218 232 229 234 235 223 223 237 239 229 228 233 234 234 237 243 246 246 248 247 238 230 228 230 232 234 236 233 226 227 233 233 232 229 227 232 239 244 250 256 261 264 265 265 262 257 251 247 243 238 233 227 224 223 223 223 224 225 224 225 226 225 225 226
240 223 159 151 179 212 233 234 209 206 215 216 215 224 224 215 216 225 233 243 248 224 202 227 234 230 232 237 231 224 230 240 242 240 235 231 230 235 239 239 238 240 239 233 229 227 228 232 236 236 231 226 229 231 226 223 223 224 228 232 236 245 254 259 261 261 260 256 251 248 244 239 234 228 224 223 223 224 224 223 221 221 222 222 222 223 224
236 185 145 183 220 221 232 252 194 204 215 211 213 229 228 216 219 229 240 250 249 238 237 243 243 241 241 243 237 222 217 229 238 242 235 220 222 232 232 228 229 232 230 227 227 228 230 231 230 228 224 221 220 218 214 215 217 221 226 227 233 245 252 254 255 253 252 248 245 243 239 233 229 225 224 224 224 225 224 222 221 221 220 220 220 221 223
209 149 185 215 243 239 238 263 232 206 208 201 211 234 236 224 220 227 237 245 246 243 246 248 248 251 255 257 244 212 210 225 232 238 233 218 222 228 220 214 221 222 220 217 215 219 224 221 217 218 219 213 209 207 208 211 214 217 222 225 233 243 248 250 249 246 244 242 240 238 234 229 226 225 225 225 225 224 223 221 220 219 217 219 222 222 222
206 213 218 231 291 295 258 245 222 185 183 185 195 231 242 224 217 224 234 242 245 242 243 247 250 256 270 273 256 222 217 228 228 230 233 230 229 225 212 213 219 217 216 215 213 215 216 209 208 214 214 206 201 202 202 206 211 214 218 224 231 237 241 245 245 243 241 239 236 234 230 226 225 224 225 226 226 224 221 219 219 218 216 219 224 223 221
201 215 232 233 242 251 247 238 202 164 180 180 174 219 249 219 204 218 230 237 240 238 240 244 244 248 265 266 258 237 223 226 225 228 236 238 233 220 211 213 217 217 215 212 214 215 207 202 208 211 206 199 195 197 200 203 207 211 216 223 228 231 235 239 241 241 240 237 236 234 230 227 226 226 226 227 227 225 224 222 220 219 219 222 225 223 219
197 205 227 222 217 241 245 227 178 167 185 167 141 225 265 206 187 207 221 229 234 233 237 237 218 209 242 253 260 254 219 210 214 223 234 240 235 226 215 207 207 211 210 209 211 206 196 199 206 204 199 195 192 195 201 202 204 211 218 224 227 229 232 234 236 239 239 238 237 235 233 232 232 231 230 229 229 226 223 220 219 221 225 227 226 223 220
205 208 223 221 226 245 230 201 182 177 171 142 139 224 259 204 189 201 207 221 232 231 231 223 185 198 229 244 259 255 179 193 213 219 229 235 232 227 216 208 208 208 201 192 189 188 193 202 203 197 194 192 192 200 203 199 207 218 224 228 229 230 232 232 234 238 240 239 239 236 234 235 235 235 232 227 224 221 218 220 225 230 232 228 224 222 220
211 212 222 227 233 233 205 191 178 153 142 148 185 217 230 190 200 200 184 206 227 226 216 200 195 216 229 240 257 85 116 185 235 233 240 244 233 223 210 202 197 190 186 184 183 190 200 203 198 193 191 190 196 203 199 201 218 228 230 231 230 228 228 228 230 235 238 238 239 236 233 232 231 229 226 221 219 218 220 224 227 228 226 223 222 222 221
213 214 221 229 236 214 178 169 157 148 160 200 212 206 169 158 180 190 194 206 218 216 204 197 210 225 230 238 256 269 208 234 254 249 240 232 217 205 194 187 177 171 179 186 188 198 204 201 197 194 190 192 200 199 197 214 228 233 231 228 225 223 224 224 225 230 234 237 239 237 233 229 226 223 220 220 221 222 221 220 219 218 218 218 220 223 223
210 216 213 218 233 203 156 140 152 188 197 206 196 189 197 138 150 169 202 216 214 206 204 206 216 228 233 237 253 265 255 250 261 252 220 195 187 171 157 168 172 168 172 185 196 205 205 200 199 195 192 196 199 196 209 226 233 232 228 224 221 219 219 220 221 224 229 234 236 236 233 229 227 225 222 220 219 218 215 211 209 211 213 214 219 224 223
201 212 209 207 228 195 157 155 193 212 204 183 154 209 236 234 146 166 195 224 218 194 195 210 215 223 237 241 244 254 255 249 245 235 212 200 195 175 160 167 170 168 172 192 206 211 207 202 202 199 198 199 197 205 222 231 230 227 225 220 216 215 216 218 219 221 225 230 233 232 230 227 224 222 220 217 214 212 210 205 201 204 207 211 218 224 223
202 212 211 195 194 181 175 191 213 211 202 204 200 194 217 256 212 171 182 222 223 194 192 203 202 212 229 231 223 227 237 235 220 202 203 207 191 172 164 166 171 176 184 195 205 211 211 209 208 205 205 202 201 216 229 231 226 223 220 214 211 212 214 215 217 218 221 226 229 228 225 222 220 218 215 212 209 207 206 202 198 198 201 207 216 222 223
206 220 202 152 185 205 203 214 223 207 201 213 210 183 204 222 206 189 186 194 194 189 191 183 184 215 221 211 214 222 228 226 206 179 211 225 190 182 187 166 173 186 193 198 207 216 219 215 211 211 211 208 212 225 231 228 224 221 216 210 210 211 212 214 215 216 217 221 225 226 222 219 219 219 217 213 209 205 203 202 201 198 196 202 213 222 224
197 210 188 186 208 211 208 220 229 229 222 220 211 210 218 207 188 193 198 176 158 172 188 185 190 207 199 181 202 225 234 232 211 182 200 215 203 215 211 178 173 181 188 202 217 225 227 221 214 214 216 217 222 229 230 225 222 218 213 211 210 209 211 212 212 213 213 216 220 223 221 218 216 218 219 217 214 209 205 203 203 200 195 196 206 219 224
204 206 199 206 215 212 210 223 229 229 229 225 219 222 223 219 207 192 179 160 142 156 190 201 186 179 181 179 182 190 217 238 233 204 206 208 207 219 217 190 177 179 189 208 217 224 230 226 219 216 219 224 228 229 226 222 219 214 212 212 211 211 211 211 211 212 212 213 216 219 220 218 215 215 216 216 218 219 216 212 208 203 197 194 200 212 220
216 216 201 195 203 218 228 231 230 227 219 214 222 226 221 229 238 221 194 194 181 178 197 193 161 166 206 203 183 184 202 218 222 222 222 217 212 214 209 196 192 197 208 214 212 219 230 228 220 218 223 229 231 228 224 222 217 213 213 213 213 213 212 209 210 211 211 213 214 216 218 220 219 219 219 218 220 223 224 222 218 214 208 201 202 210 218
217 213 204 193 192 217 228 225 225 228 219 208 226 232 217 223 234 225 216 220 217 214 216 195 170 186 217 214 198 196 203 206 208 213 219 224 229 228 220 208 201 208 221 223 217 224 233 230 222 223 229 232 232 229 225 222 217 215 213 211 211 213 211 209 209 208 208 211 213 214 217 219 220 222 224 223 224 226 228 228 226 223 221 216 212 213 218
230 212 214 214 210 222 234 229 227 227 215 205 228 238 231 231 232 225 224 228 229 229 228 211 197 205 217 214 204 202 213 217 214 212 210 211 222 230 225 214 205 216 229 230 224 231 239 236 228 230 234 234 232 230 227 222 219 217 213 209 209 212 211 210 209 207 206 208 210 212 216 217 217 220 223 226 228 229 230 232 232 231 230 228 224 220 220
266 241 231 227 216 223 235 235 229 220 199 200 221 234 240 245 244 233 228 233 236 235 227 213 207 211 220 222 211 208 220 224 220 221 221 217 223 232 230 220 214 221 229 227 226 233 239 237 233 234 236 236 235 233 229 224 221 218 213 210 211 213 212 212 210 207 207 208 209 210 213 215 216 217 218 223 228 230 230 232 235 236 235 233 230 228 225
276 277 273 262 234 231 239 242 230 189 175 190 210 225 234 241 245 242 235 233 237 235 229 223 213 205 213 223 216 209 221 227 220 216 218 223 229 235 235 227 224 226 229 230 231 234 236 236 235 234 236 239 239 236 232 226 221 218 215 214 215 216 214 211 209 207 207 207 208 209 210 211 212 214 215 217 222 226 228 230 234 236 236 234 232 230 229
252 269 288 306 292 253 250 255 247 207 186 186 199 215 223 230 237 240 236 233 236 234 233 236 227 204 203 216 217 208 218 232 228 206 201 215 223 222 225 228 228 229 231 232 233 234 234 235 235 233 236 241 242 239 235 229 223 220 219 218 219 220 217 212 208 208 208 208 208 209 210 210 211 213 215 216 217 218 220 223 228 234 236 236 234 231 230
243 250 266 287 290 265 249 246 240 223 195 185 198 213 219 224 232 236 235 239 244 240 237 240 236 209 197 208 211 206 212 224 222 197 195 210 216 219 225 228 228 227 226 225 227 228 230 233 233 232 236 243 244 241 237 231 225 223 222 221 222 223 221 216 212 211 211 211 211 210 210 211 212 212 214 215 215 215 217 218 223 229 232 234 234 232 230
259 259 267 270 265 264 268 268 263 245 201 193 205 212 211 216 226 230 230 236 238 234 237 239 229 214 209 208 204 202 204 211 214 210 209 217 222 225 228 227 225 222 218 218 223 225 227 230 232 234 241 246 244 241 238 232 226 225 223 222 222 222 221 218 216 215 215 214 213 213 213 212 212 212 212 212 213 215 217 220 225 230 231 232 233 232 230
298 328 335 315 297 296 301 302 306 297 241 219 215 204 192 200 216 225 229 230 227 226 233 234 224 221 221 209 196 196 199 205 212 215 216 220 224 226 225 222 220 217 212 219 228 229 227 229 229 235 245 249 245 243 239 230 226 226 224 222 221 220 219 219 217 217 218 218 218 217 217 215 213 211 210 211 213 214 216 219 223 229 231 230 227 226 227
333 333 322 309 309 311 298 288 288 283 264 254 242 217 196 194 204 219 227 226 219 221 227 226 221 221 219 206 198 200 201 204 209 214 219 221 222 221 212 199 187 178 197 223 232 231 230 231 231 237 248 256 258 253 242 231 229 230 228 225 224 222 221 220 218 217 218 220 220 219 218 218 215 212 210 211 211 213 215 219 222 225 228 227 223 220 221
314 307 300 300 311 316 297 283 282 281 280 284 279 266 237 213 217 225 228 219 214 224 231 228 225 227 223 215 211 211 207 202 200 204 209 211 210 208 197 180 167 167 206 225 227 225 227 234 238 245 257 271 275 267 252 239 234 232 229 227 226 226 225 223 220 218 218 218 218 217 216 217 216 213 211 212 211 212 215 218 220 223 224 225 225 225 223
310 307 319 347 353 352 355 355 348 340 340 344 343 341 342 299 249 252 275 246 228 231 232 230 242 254 251 232 213 208 204 192 181 183 192 194 186 181 179 179 188 211 233 241 242 235 226 231 243 256 272 284 286 282 267 251 240 234 231 230 228 227 227 224 221 220 219 218 217 217 216 216 215 212 212 214 214 213 213 214 217 221 222 223 228 230 226
336 331 348 1 357 355 -0 2 358 351 349 354 1 3 357 354 4 21 19 3 17 45 55 44 338 313 292 231 187 172 161 150 135 124 113 87 73 82 113 148 184 226 256 274 278 272 254 247 257 274 287 288 287 285 275 261 249 242 239 236 232 229 227 225 222 221 219 218 219 219 217 217 215 213 215 217 217 216 214 214 216 218 219 222 228 232 230
1 349 352 359 1 355 347 345 346 346 344 347 356 4 1 357 359 7 14 24 35 36 25 4 345 340 353 78 115 117 122 126 119 105 91 70 61 66 77 87 92 79 345 313 311 308 298 291 295 304 308 309 308 301 291 277 262 253 248 242 236 231 228 225 222 220 218 220 221 221 219 218 217 217 219 220 219 217 216 217 218 218 218 221 226 228 228
357 345 350 7 12 1 348 343 345 345 345 346 352 360 2 358 359 7 15 18 16 6 353 343 343 3 37 63 73 79 92 107 110 103 91 79 74 77 84 87 84 73 52 19 356 344 335 332 330 325 321 322 321 315 305 293 278 265 256 248 240 235 231 227 223 220 221 223 224 221 219 219 219 219 221 221 220 219 220 222 223 221 221 222 223 222 223
358 355 356 9 11 3 358 356 350 349 352 352 351 357 2 1 3 10 14 10 3 357 349 343 350 16 36 49 60 64 65 66 74 73 61 56 63 79 92 91 83 78 66 28 9 0 351 341 334 330 327 325 324 322 319 311 295 279 266 254 245 239 236 231 226 224 225 226 224 223 223 222 222 222 222 222 222 221 221 224 225 225 225 227 223 218 216
358 358 352 350 356 -0 2 2 358 358 3 3 3 7 8 1 359 5 9 6 1 356 348 344 353 13 25 34 47 54 48 39 34 31 29 31 40 60 80 77 61 65 70 28 7 8 13 8 358 354 357 358 357 356 356 349 332 304 280 264 251 244 239 234 229 227 227 226 226 226 226 225 223 223 222 222 222 222 222 224 226 226 228 229 226 219 215
1 2 356 350 350 351 354 359 7 16 20 18 16 14 9 -0 357 3 8 7 2 356 349 347 358 12 22 31 41 49 45 34 25 17 13 13 19 45 72 67 49 50 45 9 359 8 20 27 33 39 36 27 18 12 11 13 13 1 323 282 263 251 243 238 233 230 229 228 227 226 226 224 224 224 223 223 223 224 224 225 226 226 228 229 226 221 218
1 1 357 353 353 355 356 359 8 22 28 26 21 16 9 4 2 4 6 6 3 359 354 355 4 17 25 25 25 33 37 31 22 12 3 355 0 66 89 71 48 38 26 11 9 15 20 25 35 40 34 25 16 8 5 6 11 17 19 352 294 267 253 246 241 238 235 232 228 225 225 225 225 225 225 224 225 225 226 227 227 228 228 229 227 224 221
357 356 354 353 356 2 1 356 4 24 32 29 24 17 9 4 5 9 10 4 2 2 2 4 12 24 23 14 10 17 23 20 15 9 1 352 355 75 95 61 31 23 18 12 13 18 20 25 34 35 29 23 14 4 359 360 2 6 11 10 347 304 275 261 252 246 243 240 233 228 226 226 226 228 228 227 226 227 227 228 229 229 230 230 230 228 226
354 352 350 349 355 3 2 356 5 28 35 32 25 17 9 5 7 14 14 5 2 4 7 12 24 32 19 7 5 11 13 11 10 10 10 6 7 42 79 34 15 12 10 6 9 15 20 27 33 29 23 19 9 357 353 354 354 355 357 1 358 340 307 282 267 255 250 247 240 234 230 228 227 228 229 228 229 229 228 228 229 230 231 232 232 232 230
352 349 350 354 357 358 358 2 17 36 42 36 26 17 12 7 7 11 14 11 9 10 13 19 29 32 21 10 11 14 12 8 6 7 20 44 56 57 48 7 5 7 5 2 5 10 15 22 27 23 19 14 1 350 347 348 347 346 348 351 350 344 327 306 287 273 264 257 250 243 237 233 230 229 229 229 229 230 230 230 231 231 231 233 234 235 234
350 347 349 356 358 357 2 14 26 35 41 37 29 21 15 9 8 12 15 14 14 19 22 22 26 27 21 15 16 18 13 9 5 3 19 58 63 53 34 9 3 5 5 2 1 1 5 13 16 14 10 6 355 346 345 346 342 338 339 342 342 339 331 318 304 290 278 269 260 252 244 238 234 232 232 231 231 231 231 232 232 233 233 234 235 236 236
348 349 354 1 1 -0 6 21 29 31 30 30 30 26 18 10 11 17 19 14 13 21 26 24 23 24 19 15 18 20 8 4 4 1 3 38 45 29 17 10 8 7 5 2 358 353 355 3 6 3 360 358 354 350 350 349 343 338 337 337 336 332 325 317 309 300 288 277 269 262 255 249 242 238 236 235 235 235 234 235 235 236 237 237 237 238 238
346 356 7 12 10 5 7 22 29 25 17 18 29 31 22 12 10 18 20 15 12 19 24 22 22 24 18 12 15 16 3 357 8 24 32 40 20 357 357 1 5 6 2 360 357 353 353 357 359 357 354 354 355 356 356 353 348 345 344 341 338 334 328 319 310 302 294 287 280 274 267 260 254 249 245 243 241 240 240 240 240 241 241 241 241 240 240
345 6 18 20 13 6 10 21 28 25 18 18 32 32 20 10 7 16 20 17 15 18 18 15 18 22 18 12 10 10 6 9 30 48 47 38 11 344 346 352 358 2 2 0 360 357 355 354 354 354 353 354 357 359 358 356 353 352 351 348 345 344 340 333 324 317 309 301 295 289 282 275 269 262 255 251 249 248 247 247 246 246 246 246 246 246 245
351 10 23 23 13 6 9 18 25 28 26 25 28 20 7 1 1 10 17 17 17 17 14 11 14 18 18 17 19 16 7 5 24 41 31 18 5 352 351 355 357 358 0 2 2 359 357 355 355 354 354 356 357 358 357 356 354 353 352 350 347 345 343 339 334 330 326 321 314 306 296 288 283 278 272 264 259 254 252 250 250 250 250 251 251 251 251
357 10 23 23 14 7 9 18 27 32 29 22 16 7 358 355 357 7 15 15 15 14 12 10 12 14 16 20 23 20 14 9 6 3 2 1 357 355 357 359 356 356 360 3 1 358 356 356 357 357 357 358 357 355 354 353 352 350 348 347 346 344 341 336 332 329 327 324 320 316 307 298 291 286 281 277 273 268 263 259 256 254 255 255 255 254 255
1 12 26 29 19 9 10 20 29 28 19 12 5 359 355 354 358 9 14 12 11 10 8 7 8 10 14 17 18 15 13 12 4 343 343 350 354 357 359 359 357 358 360 359 357 356 356 357 357 358 359 358 355 351 349 348 349 348 346 344 343 341 336 330 327 325 323 320 320 322 322 317 309 298 288 282 279 277 275 272 269 265 264 263 262 261 261
2 14 27 31 22 17 22 29 28 19 11 5 357 355 358 1 2 5 8 9 9 5 1 2 5 8 10 11 10 8 7 6 359 351 349 353 358 0 0 360 360 360 359 356 354 353 354 355 356 356 356 355 352 348 344 343 344 346 346 344 340 336 331 327 325 325 325 324 324 325 326 329 330 325 317 306 293 283 277 275 274 273 273 271 269 268 267
4 22 32 27 22 28 36 39 34 24 14 4 358 -0 8 10 3 356 3 8 7 1 356 359 3 8 8 5 2 1 2 2 359 357 357 357 358 360 0 1 0 359 357 355 354 353 352 352 352 352 351 349 347 344 342 342 342 342 342 340 336 333 330 328 327 326 325 325 325 326 329 334 335 334 333 330 324 313 300 289 281 277 276 275 273 273 272
24 33 39 35 29 32 38 39 35 29 18 9 7 11 13 9 360 355 1 4 2 359 355 351 352 1 5 3 357 356 358 1 1 1 0 359 357 357 358 358 358 358 357 355 353 351 349 349 348 347 346 345 342 341 341 341 340 338 336 334 332 330 329 328 327 325 325 326 327 330 332 334 333 332 332 334 334 333 330 324 314 303 293 284 278 277 277
Height
687 684 691 696 693 693 699 706 714 721 727 734 733 721 707 708 707 685 676 688 680 666 673 675 668 669 670 671 673 672 674 677 676 677 678 677 677 678 679 680 680 680 680 680 680 680 680 680 679 679 679 678 679 680 680 681 682 682 683 684 684 685 686 687 688 689 691 693 694 696 697 699 701 703 705 707 709 711 713 715 716 718 720 721 723 724 725
691 689 695 698 694 693 697 700 704 710 716 720 717 708 702 704 695 678 681 686 668 659 669 668 663 664 665 668 671 670 672 673 671 673 675 674 675 676 676 676 676 676 676 677 678 677 678 678 677 676 676 676 677 678 678 679 680 681 681 682 682 683 683 684 686 687 688 689 691 692 693 695 697 699 701 703 705 707 709 711 713 714 716 718 719 721 722
694 688 693 700 698 694 694 699 702 705 707 708 706 699 699 705 697 684 692 693 665 653 662 665 665 665 664 667 667 665 667 668 669 671 671 671 672 672 672 673 672 672 673 674 675 675 675 674 674 674 674 674 675 676 677 678 678 680 680 680 681 681 681 682 683 685 686 687 688 689 690 692 693 695 698 700 702 704 705 708 709 711 713 715 716 718 719
691 682 689 700 702 700 700 699 697 698 700 697 693 691 693 695 691 692 705 694 659 648 661 666 665 665 664 665 666 664 662 662 666 668 666 667 667 667 669 669 669 670 670 671 672 671 671 671 671 671 671 672 673 673 674 675 677 678 678 678 679 679 680 681 682 683 684 685 686 686 687 689 691 693 695 696 699 700 702 704 706 708 710 711 713 715 717
687 681 689 697 703 709 703 687 677 682 688 684 682 685 685 684 684 689 689 667 643 649 663 663 661 663 661 659 660 660 657 657 662 663 662 663 663 664 666 665 666 666 666 667 667 667 668 667 667 668 669 670 670 670 672 673 674 676 676 676 677 678 678 680 680 681 682 683 684 685 686 687 689 691 692 693 696 697 699 701 703 704 706 708 710 712 714
686 685 691 698 704 700 680 660 657 664 670 674 679 678 676 679 679 672 660 644 641 654 659 655 656 656 652 651 652 653 654 655 656 655 656 659 660 662 662 661 662 663 663 664 664 663 664 663 664 666 667 667 668 668 670 671 672 673 674 674 675 676 677 678 678 679 681 681 682 683 684 686 687 688 690 691 693 695 697 699 700 701 703 705 707 709 711
689 691 698 702 695 677 659 652 654 654 654 663 672 667 662 667 670 665 658 648 645 651 652 648 649 647 645 646 647 649 652 651 649 648 650 655 657 656 656 657 659 660 660 661 661 660 660 660 661 664 664 665 666 666 667 669 669 671 672 672 673 674 674 675 676 677 679 680 681 682 683 685 686 687 688 689 691 693 694 696 697 698 700 702 705 707 708
690 695 699 689 668 654 655 657 655 653 655 660 667 664 656 656 660 661 656 646 642 648 649 644 641 641 643 643 642 645 647 644 643 644 645 648 649 647 649 652 652 653 655 656 656 656 656 657 658 661 662 662 663 664 665 666 667 669 670 671 671 672 672 673 674 676 677 678 679 681 682 683 684 685 687 688 689 691 692 693 694 696 697 699 702 704 706
682 686 684 673 662 657 654 649 648 651 652 653 662 662 646 641 648 650 644 639 639 642 642 639 638 642 647 643 635 635 639 638 639 640 639 638 639 640 643 645 644 646 648 649 650 651 652 654 655 657 659 660 661 662 663 664 666 667 668 669 670 670 671 672 673 674 675 676 678 679 681 682 683 684 685 686 688 689 690 692 693 695 696 697 699 702 703
672 678 677 676 678 669 649 636 638 645 645 644 654 655 635 624 633 640 635 631 631 634 635 635 637 646 651 640 623 622 630 633 634 636 633 631 632 635 637 638 640 642 643 645 647 648 650 651 652 654 656 657 658 660 661 663 664 666 667 667 668 669 670 671 672 673 674 675 676 678 679 680 681 682 684 685 687 688 689 690 691 693 695 696 698 699 700
667 674 675 671 667 654 636 629 633 643 644 641 654 661 638 614 617 624 623 621 622 625 628 629 636 649 649 630 613 614 623 625 628 630 627 626 627 628 630 633 635 637 639 642 644 646 647 648 649 652 654 654 656 658 659 661 662 663 664 664 665 667 668 670 671 672 673 674 675 676 677 678 680 681 682 684 685 686 688 689 690 691 693 695 696 697 698
660 665 665 658 650 639 630 628 633 641 640 640 656 659 630 604 605 609 611 616 618 618 621 627 635 640 633 617 609 612 618 620 622 623 622 621 622 623 626 628 630 633 636 639 642 644 644 644 647 650 651 652 654 655 656 659 660 659 660 661 663 665 666 668 670 670 672 672 673 674 675 676 678 679 680 682 683 685 686 687 689 690 691 693 694 695 696
655 657 656 650 641 632 627 629 634 640 643 646 646 630 605 600 608 609 608 612 613 613 619 625 626 622 614 609 608 613 617 618 618 620 620 620 619 620 622 624 627 631 634 636 638 639 640 642 645 647 648 650 652 653 655 657 655 654 656 659 661 663 665 666 668 669 670 671 671 672 673 674 676 677 678 680 681 682 684 685 686 688 689 691 692 692 693
648 647 647 646 637 623 620 630 638 639 640 636 621 602 595 600 604 607 609 607 605 610 616 617 615 611 609 610 611 614 617 617 616 618 619 619 619 619 620 622 624 628 631 634 636 636 639 642 642 643 646 647 648 651 653 652 650 651 655 657 659 661 663 664 665 666 668 669 670 671 671 672 674 675 676 678 679 680 682 683 684 686 688 689 690 690 691
640 642 643 643 631 613 612 629 638 632 618 605 596 595 598 597 595 602 608 604 604 609 611 612 611 609 610 613 613 614 616 616 616 617 617 618 618 618 619 621 623 626 630 632 634 635 638 639 639 641 643 644 646 649 648 646 648 651 653 655 657 659 660 662 663 664 666 667 668 669 669 670 671 673 674 675 677 678 679 681 682 684 686 687 688 688 689
628 632 629 620 610 604 606 611 613 609 600 593 593 594 592 592 594 598 600 600 604 609 608 609 611 610 610 613 613 613 614 614 615 615 616 617 618 617 617 618 620 624 628 630 632 634 636 636 637 639 640 642 645 646 643 644 647 650 651 653 655 656 658 659 660 662 663 666 667 667 668 668 669 670 672 673 675 676 677 678 680 682 684 685 685 685 686
605 606 603 599 600 605 604 593 586 591 596 597 598 593 587 589 596 599 597 597 602 608 608 607 608 608 608 609 611 612 612 611 613 614 616 617 618 618 618 619 621 623 625 627 630 632 633 634 636 636 638 640 642 641 640 643 646 647 649 651 653 654 655 656 658 659 661 663 665 665 666 666 667 668 670 671 672 674 675 676 677 679 682 683 683 683 684
593 595 596 598 601 603 599 590 585 590 594 595 596 595 590 590 596 601 598 595 598 606 609 606 604 604 604 606 609 611 611 611 613 614 615 617 618 619 621 622 622 623 625 627 629 630 631 633 634 635 637 637 637 637 638 641 644 645 647 649 650 651 652 654 656 657 659 661 662 663 664 664 664 666 667 669 670 671 672 674 675 676 678 680 681 681 682
591 595 595 595 596 598 597 594 591 592 594 595 595 594 591 592 597 600 598 596 599 605 607 603 598 599 603 605 607 610 611 611 611 612 613 615 618 620 622 621 621 623 626 627 628 629 630 631 632 633 634 634 634 635 637 640 642 643 645 646 647 648 650 651 653 655 656 658 660 661 662 662 662 663 664 666 668 668 669 671 672 674 675 677 679 679 680
584 585 586 586 590 595 596 595 593 592 593 593 592 592 591 592 596 597 598 600 602 602 603 602 597 598 602 603 603 606 611 611 611 612 612 614 616 619 620 620 621 623 625 625 627 628 628 628 629 630 631 631 632 634 636 638 639 641 642 643 643 645 646 648 650 651 653 655 657 658 659 659 660 660 661 663 665 665 666 668 669 671 672 674 675 676 677
581 581 582 585 591 594 593 592 591 589 588 589 588 589 591 592 593 596 598 601 601 600 600 600 599 600 601 601 601 604 607 609 611 611 611 613 615 616 617 618 620 622 623 624 625 625 625 626 627 627 627 628 630 632 634 635 636 638 639 639 640 642 643 644 646 648 650 652 653 655 656 657 657 658 658 660 661 662 664 665 667 668 670 672 673 674 674
581 580 579 581 585 585 581 581 583 582 585 588 587 587 590 591 591 593 595 598 600 600 599 599 600 601 601 602 604 604 603 605 607 607 609 612 613 614 615 617 618 620 621 621 622 622 623 623 624 624 625 626 627 629 630 632 633 634 635 636 638 639 640 641 643 644 647 648 650 652 653 654 655 655 656 657 658 659 661 663 664 666 668 669 671 673 673
578 573 571 571 574 574 571 571 574 575 580 586 587 586 587 588 588 590 593 594 596 598 599 599 600 599 599 601 603 603 603 603 603 605 607 609 610 612 614 615 617 618 618 618 619 619 619 620 621 621 622 623 624 626 627 628 629 630 631 633 634 635 636 638 639 641 643 645 647 648 650 650 652 653 654 655 655 657 659 660 662 664 665 666 669 670 671
581 573 568 567 570 571 567 566 569 571 576 582 584 583 584 586 587 589 590 591 592 595 596 598 599 598 598 599 600 601 601 601 602 604 605 606 607 609 610 612 614 615 614 615 616 616 616 617 618 619 619 620 621 622 623 624 625 626 628 629 630 631 633 634 636 638 640 641 643 645 646 647 649 650 651 652 653 654 656 658 659 660 662 663 665 667 668
589 582 575 572 572 569 565 565 568 571 574 576 578 580 582 584 585 586 588 589 590 591 592 594 596 597 597 596 597 598 598 598 599 600 602 604 606 607 609 610 611 610 611 611 612 612 614 615 615 616 617 617 618 619 620 621 622 623 624 625 626 627 629 631 633 635 636 638 640 641 642 644 645 646 648 649 650 652 654 655 656 657 658 660 661 663 665
587 584 581 581 578 572 569 569 569 570 572 573 574 576 577 579 581 583 586 587 586 586 587 588 589 592 594 594 594 596 595 595 596 598 600 602 603 605 606 606 606 606 608 608 609 611 612 612 613 614 614 614 615 616 617 617 619 619 620 621 623 624 626 628 630 631 633 634 635 637 639 640 641 643 644 645 647 650 651 652 654 654 655 656 658 660 662
583 581 581 583 580 575 571 567 565 565 567 570 571 572 573 575 578 581 583 584 584 585 585 584 584 588 590 590 591 593 593 593 593 595 597 598 599 600 601 601 602 604 605 606 607 608 609 610 611 611 611 612 613 613 614 615 615 616 618 619 620 622 623 625 626 628 629 631 632 633 635 636 637 639 641 642 645 646 648 649 650 650 651 653 656 658 659
580 580 582 583 581 577 572 568 566 565 566 567 567 568 570 573 576 578 581 582 582 583 583 582 583 584 585 586 587 589 590 591 591 592 593 594 594 595 597 599 601 602 603 604 605 605 607 608 609 609 609 609 610 610 611 611 612 613 615 616 618 619 621 622 624 625 626 628 629 630 631 632 634 636 638 640 641 643 644 646 647 647 648 651 653 655 657
585 589 592 590 586 581 577 573 570 569 567 566 565 567 569 571 574 576 576 577 578 580 580 579 580 581 581 582 584 585 586 588 588 588 589 590 591 593 596 598 600 600 601 603 603 604 605 606 607 607 607 607 607 608 608 608 609 610 612 613 615 616 617 619 620 622 624 625 626 628 629 630 632 633 634 636 638 639 641 642 643 644 645 648 650 652 652
597 600 600 596 591 587 582 577 573 571 569 568 567 567 568 569 570 571 572 573 575 576 576 576 577 578 578 580 580 581 581 582 583 584 586 588 590 593 595 597 598 600 601 602 602 603 604 605 606 606 605 605 605 606 605 606 607 607 608 610 611 612 614 616 617 619 621 622 623 625 627 628 629 630 631 632 634 636 637 638 639 641 642 644 646 647 647
608 603 598 595 591 587 583 578 574 573 572 571 569 569 569 569 568 568 569 571 572 573 574 575 575 575 576 577 577 577 578 579 581 583 585 587 590 593 594 595 596 598 599 600 601 602 603 604 605 604 603 604 604 603 603 604 605 605 606 607 608 609 611 613 614 616 617 619 620 622 624 625 626 627 628 629 631 632 633 634 636 637 638 640 641 641 642
609 597 592 594 594 591 589 587 584 582 580 578 576 575 576 575 573 571 572 573 573 573 574 575 575 576 576 576 576 577 578 580 581 583 585 587 589 590 591 592 593 595 597 599 601 601 602 603 603 603 603 603 602 601 601 601 602 603 604 604 605 606 608 609 611 613 614 615 617 618 619 620 622 623 625 625 626 627 629 631 632 633 635 636 635 635 638
613 601 598 604 604 599 598 599 598 595 592 589 587 587 586 584 581 579 578 577 576 576 577 578 578 578 577 575 575 577 578 580 582 584 585 587 588 589 590 591 592 594 596 598 600 601 602 602 602 602 602 601 600 599 598 599 599 601 602 602 603 604 604 606 608 609 611 612 612 613 614 616 618 619 621 621 622 624 625 627 628 629 630 631 631 631 634
622 618 617 619 617 613 611 610 608 604 601 598 595 594 593 590 588 586 584 582 581 581 582 582 580 579 577 576 576 577 578 579 582 584 586 587 589 590 591 592 593 594 596 598 599 601 601 602 602 602 601 600 598 597 596 596 597 598 598 600 600 601 602 603 605 606 607 608 608 609 611 613 613 615 616 617 619 621 622 622 623 624 625 626 627 629 631
626 625 622 621 621 620 619 616 613 610 608 605 602 599 598 596 593 591 590 589 589 588 586 585 582 580 579 578 578 579 580 580 582 585 586 588 589 590 591 593 594 595 596 597 598 599 600 601 601 601 600 599 598 596 595 594 594 595 596 597 598 598 599 600 601 603 604 605 606 607 608 608 609 610 612 613 616 617 618 619 619 620 621 622 623 625 627
626 625 623 622 622 622 620 618 617 615 613 611 608 606 604 601 599 597 596 595 594 592 590 588 585 582 581 581 581 582 583 583 584 585 586 587 589 590 591 592 594 595 596 598 598 598 599 599 599 600 599 598 597 595 594 592 592 592 593 594 595 596 598 598 599 600 601 602 603 604 604 604 606 607 608 610 611 612 614 615 616 617 618 618 620 622 624
628 627 625 623 622 621 620 619 618 617 615 614 613 610 609 606 604 602 601 599 598 596 594 592 589 587 585 585 584 585 586 587 587 588 588 588 589 589 590 592 594 595 597 599 599 599 598 598 597 597 597 597 597 595 593 591 590 590 590 591 592 594 595 597 598 598 598 599 601 601 601 602 603 603 604 605 606 607 609 610 611 612 614 615 616 618 620
629 629 627 625 624 622 620 619 618 617 616 615 614 613 613 611 608 606 605 604 602 600 598 596 594 592 590 588 588 588 589 590 590 591 591 590 590 590 592 594 597 598 600 601 601 600 599 598 597 596 596 597 598 597 595 592 590 588 587 588 589 591 593 595 596 596 596 597 597 598 599 599 599 600 600 601 602 603 604 605 606 608 609 610 612 614 615
630 630 629 626 625 623 621 620 619 617 616 616 616 616 615 614 612 610 609 608 606 604 602 599 598 596 595 594 592 592 592 592 593 593 593 592 592 592 594 598 600 602 603 603 602 601 600 599 597 595 596 597 598 598 597 594 591 587 586 586 587 589 591 593 594 595 595 594 595 595 596 596 596 597 597 597 598 599 599 600 602 603 604 605 607 608 609
634 633 631 629 627 625 624 622 621 620 619 619 619 618 617 616 615 613 612 611 610 608 606 604 602 601 601 600 599 598 597 596 595 594 594 594 593 593 595 599 602 603 603 603 602 600 599 598 597 596 596 597 599 599 598 596 592 588 586 585 586 588 589 591 592 593 593 593 593 593 593 593 593 593 593 594 594 595 595 596 598 598 599 601 602 603 604
637 635 633 631 629 627 626 625 623 622 622 622 622 621 621 619 617 616 615 614 614 612 610 608 606 606 606 606 604 603 601 599 598 596 595 595 595 595 598 602 604 604 604 604 602 600 598 597 597 596 596 597 599 600 599 597 594 590 586 585 585 586 588 589 590 591 591 592 591 591 590 590 590 590 590 591 591 591 592 592 593 594 595 596 597 598 599
639 637 635 633 631 629 628 627 625 624 625 624 624 624 623 622 621 619 618 617 617 615 614 612 610 610 609 608 607 606 605 603 602 600 598 599 599 601 604 606 606 605 605 604 602 601 599 598 597 597 598 598 598 599 599 598 595 591 587 585 584 585 587 588 589 589 590 590 590 589 589 588 587 587 587 587 587 587 588 588 589 590 591 591 592 594 595
640 637 635 634 632 630 629 628 627 627 626 626 626 626 624 623 623 622 620 620 619 618 616 615 613 612 612 610 609 608 607 606 605 604 603 603 603 605 607 608 607 606 606 605 604 603 602 600 600 600 599 599 598 598 598 597 595 592 589 586 584 584 585 587 587 588 588 588 588 587 587 586 585 584 584 584 584 584 584 584 585 586 586 587 588 589 590
640 638 637 635 633 632 631 629 629 629 628 627 627 627 626 625 624 623 623 622 622 620 619 617 616 615 614 613 612 611 610 610 609 608 607 606 606 607 608 609 608 606 606 606 606 605 604 604 603 602 601 600 599 597 597 596 595 593 589 586 584 584 584 585 586 587 587 586 586 585 585 584 583 582 581 581 580 580 580 581 581 581 582 583 584 585 586
640 639 637 635 634 633 632 631 631 631 630 629 629 628 628 627 626 625 625 624 624 623 622 620 619 618 617 616 615 614 613 612 611 611 611 612 612 612 611 610 609 608 607 607 607 607 607 606 605 604 602 600 598 597 596 595 594 591 589 587 585 584 584 585 585 586 585 585 584 583 582 582 581 580 579 578 577 577 577 577 577 578 578 579 580 581 582
641 639 637 636 636 635 633 633 634 633 631 631 630 629 630 630 629 628 627 627 626 626 625 624 622 621 619 618 617 616 614 613 612 613 614 616 617 616 615 613 611 610 609 608 607 608 608 607 606 605 603 601 598 596 594 593 592 590 589 587 586 585 585 586 586 585 585 584 583 582 581 580 579 578 577 576 575 575 574 574 574 574 575 575 576 577 578
641 639 638 638 638 637 636 635 635 633 632 632 631 632 633 633 631 631 630 629 628 628 628 627 625 623 621 620 619 617 615 614 613 613 615 617 617 617 616 615 613 611 610 609 608 609 608 607 606 605 603 601 599 596 594 592 591 590 588 587 586 586 587 587 587 586 585 583 582 581 579 578 578 577 575 574 573 572 572 572 571 571 571 572 572 573 574
643 640 640 641 641 639 638 637 636 635 635 635 636 637 637 636 634 634 633 631 630 630 629 628 627 625 622 621 620 619 619 619 618 616 616 617 617 616 615 614 612 611 610 608 608 608 608 607 606 604 603 601 600 598 596 594 592 590 589 588 587 587 588 588 588 587 586 584 582 581 578 577 576 575 574 573 572 571 570 569 568 568 568 568 569 570 570
645 644 644 644 644 643 641 640 638 638 639 640 640 640 639 638 637 636 635 633 633 632 630 630 628 626 624 622 622 622 623 623 623 621 620 618 617 615 614 612 611 610 609 608 608 607 607 606 605 604 603 602 601 599 598 596 593 591 590 589 589 588 588 588 588 587 587 585 583 581 579 577 575 574 573 572 571 569 568 567 566 566 565 565 566 566 567
648 648 647 647 647 647 646 644 644 644 645 644 643 642 641 640 639 637 636 635 634 633 632 631 630 628 627 625 625 625 625 625 625 623 621 619 616 615 613 611 610 610 609 609 608 608 607 606 605 604 603 603 602 601 600 598 595 593 592 591 590 589 589 588 587 587 586 585 583 581 579 577 575 573 572 570 569 568 567 566 565 564 563 563 563 563 563
652 652 651 651 651 651 649 649 649 649 648 647 646 645 644 644 643 642 640 639 638 636 635 634 632 631 630 629 628 627 627 626 625 623 621 619 617 616 614 613 612 611 611 610 610 609 608 607 606 605 604 603 603 602 601 600 598 596 594 592 591 590 589 588 588 587 586 585 583 582 579 577 576 574 572 570 568 567 566 565 564 563 562 561 560 560 560
655 654 653 653 652 652 651 651 651 651 650 649 648 647 646 646 646 644 642 641 640 639 638 637 635 635 634 632 631 630 629 628 626 625 623 621 620 618 617 616 615 614 613 612 612 611 610 608 607 606 605 604 603 602 602 600 599 597 596 593 592 591 590 589 589 588 586 585 584 581 579 577 575 573 571 570 568 566 565 564 563 562 561 559 559 558 558